{"data":{"norad_id":62173,"epoch":"2026-05-24T21:21:04.578048Z","epoch_age_seconds":84543,"freshness":"FRESH","line1":"1 62173U 24225L   26144.88963632  .00003907  00000+0  33503-3 0  9991","line2":"2 62173  70.0013 322.1369 0002527 274.1029  85.9841 14.98328803 81548","mean_motion":14.98328803,"eccentricity":0.0002527,"inclination_deg":70.0013,"raan_deg":322.1369,"arg_perigee_deg":274.1029,"mean_anomaly_deg":85.9841,"bstar":0.00033503,"rev_number":8154,"period_min":96.10707590462,"perigee_km":570.3032778917,"apogee_km":573.81590724958,"semimajor_km":6950.1965925706,"source":"CELESTRAK","updated_at":"2026-05-25T13:38:19.602584Z"}}